| time (UTC) | temp F | wind direction | speed knots | gust knots | rain 1hr in | rain 24hr in | rain mn in | humidity % | barometer mb |
| 20260507052010 | 51 | 0 | 0.0 | 0.0 | 0.00 | 0.00 | 0.00 | 86 | 1011.3 |
| 20260507050510 | 51 | 0 | 0.0 | 0.0 | 0.00 | 0.00 | 0.00 | 86 | 1011.0 |
| 20260507045009 | 51 | 0 | 0.0 | 0.0 | 0.00 | 0.00 | 0.00 | 86 | 1010.8 |
| 20260507043514 | 51 | 0 | 0.0 | 0.0 | 0.00 | 0.00 | 0.00 | 86 | 1010.7 |
| 20260507042014 | 51 | 0 | 0.0 | 0.0 | 0.00 | 0.00 | 0.00 | 87 | 1010.4 |
| 20260507040514 | 51 | 0 | 0.0 | 0.0 | 0.00 | 0.00 | 0.00 | 87 | 1010.3 |
| 20260507035014 | 51 | 0 | 0.0 | 0.0 | 0.00 | 0.00 | 0.00 | 87 | 1010.3 |
| 20260507033514 | 51 | 0 | 0.0 | 0.0 | 0.00 | 0.00 | 0.00 | 87 | 1010.3 |
| 20260507030514 | 51 | 0 | 0.0 | 0.0 | 0.00 | 0.00 | 0.00 | 87 | 1009.9 |
| 20260507025013 | 52 | 0 | 0.0 | 0.0 | 0.00 | 0.00 | 0.00 | 87 | 1009.9 |
| 20260507020513 | 52 | 0 | 0.0 | 0.0 | 0.00 | 0.00 | 0.00 | 86 | 1009.5 |
| 20260507015013 | 52 | 0 | 0.0 | 0.0 | 0.00 | 0.00 | 0.00 | 86 | 1009.5 |
| 20260507013513 | 52 | 0 | 0.0 | 0.0 | 0.00 | 0.00 | 0.00 | 86 | 1009.3 |
| 20260507012013 | 52 | 0 | 0.0 | 0.0 | 0.00 | 0.00 | 0.00 | 86 | 1009.3 |
| 20260507010513 | 52 | 0 | 0.0 | 0.0 | 0.00 | 0.00 | 0.00 | 86 | 1009.2 |
| 20260507005013 | 52 | 0 | 0.0 | 0.0 | 0.00 | 0.00 | 0.00 | 86 | 1009.2 |
| 20260507003516 | 52 | 0 | 0.0 | 0.0 | 0.00 | 0.00 | 0.00 | 86 | 1009.2 |
| 20260507002015 | 52 | 0 | 0.0 | 0.0 | 0.00 | 0.00 | 0.00 | 86 | 1009.1 |
| 20260507000512 | 52 | 0 | 0.0 | 0.0 | 0.00 | 0.00 | 0.00 | 86 | 1009.1 |
| 20260506235012 | 52 | 0 | 0.0 | 0.0 | 0.00 | 0.00 | 0.00 | 86 | 1009.1 |
| 20260506233515 | 52 | 0 | 0.0 | 0.0 | 0.00 | 0.00 | 0.00 | 86 | 1009.1 |
| 20260506232012 | 52 | 0 | 0.0 | 0.0 | 0.00 | 0.00 | 0.00 | 86 | 1009.0 |
| 20260506230512 | 52 | 0 | 0.0 | 0.0 | 0.00 | 0.00 | 0.00 | 86 | 1008.9 |
| 20260506225015 | 52 | 0 | 0.0 | 0.0 | 0.00 | 0.00 | 0.00 | 86 | 1008.8 |
| 20260506223512 | 52 | 0 | 0.0 | 0.0 | 0.00 | 0.00 | 0.00 | 86 | 1008.7 |
| 20260506220511 | 53 | 0 | 0.0 | 0.0 | 0.00 | 0.00 | 0.00 | 85 | 1008.5 |
| 20260506213511 | 53 | 0 | 0.0 | 0.0 | 0.00 | 0.16 | 0.16 | 84 | 1008.5 |
| 20260506210511 | 53 | 0 | 0.0 | 0.0 | 0.00 | 0.16 | 0.16 | 84 | 1008.2 |
| 20260506205011 | 54 | 0 | 0.0 | 0.0 | 0.00 | 0.16 | 0.16 | 84 | 1008.0 |
| 20260506203511 | 54 | 0 | 0.0 | 0.0 | 0.00 | 0.16 | 0.16 | 83 | 1007.9 |
| 20260506155014 | 66 | 0 | 0.0 | 0.0 | 0.00 | 0.16 | 0.16 | 63 | 1004.7 |
| 20260506153511 | 67 | 0 | 0.0 | 0.0 | 0.00 | 0.16 | 0.16 | 61 | 1004.7 |
| 20260506152011 | 67 | 0 | 0.0 | 0.0 | 0.00 | 0.16 | 0.16 | 61 | 1004.6 |
| 20260506150511 | 67 | 0 | 0.0 | 0.0 | 0.00 | 0.16 | 0.16 | 62 | 1004.5 |
| 20260506145010 | 67 | 0 | 0.0 | 0.0 | 0.00 | 0.16 | 0.16 | 61 | 1004.5 |
| 20260506142013 | 68 | 0 | 0.0 | 0.0 | 0.00 | 0.16 | 0.16 | 60 | 1004.4 |
| 20260506140510 | 68 | 0 | 0.0 | 0.0 | 0.00 | 0.16 | 0.16 | 60 | 1004.4 |
| 20260506135013 | 69 | 0 | 0.0 | 0.0 | 0.00 | 0.16 | 0.16 | 61 | 1004.4 |
| 20260506133510 | 68 | 0 | 0.0 | 0.0 | 0.00 | 0.16 | 0.16 | 60 | 1004.5 |
| 20260506132010 | 68 | 0 | 0.0 | 0.0 | 0.00 | 0.16 | 0.16 | 61 | 1004.4 |
| 20260506130510 | 67 | 0 | 0.0 | 0.0 | 0.00 | 0.16 | 0.16 | 61 | 1004.6 |
| 20260506125010 | 67 | 0 | 0.0 | 0.0 | 0.00 | 0.16 | 0.16 | 60 | 1004.6 |
| 20260506123509 | 68 | 0 | 0.0 | 0.0 | 0.00 | 0.16 | 0.16 | 57 | 1004.6 |
| 20260506122009 | 68 | 0 | 0.0 | 0.0 | 0.00 | 0.16 | 0.16 | 58 | 1004.6 |
| 20260506120514 | 67 | 0 | 0.0 | 0.0 | 0.00 | 0.16 | 0.16 | 60 | 1004.6 |
| 20260506115014 | 67 | 0 | 0.0 | 0.0 | 0.00 | 0.16 | 0.16 | 61 | 1004.8 |
| 20260506113517 | 66 | 0 | 0.0 | 0.0 | 0.00 | 0.16 | 0.16 | 66 | 1004.8 |
| 20260506112017 | 65 | 0 | 0.0 | 0.0 | 0.00 | 0.16 | 0.16 | 65 | 1004.9 |
| 20260506110517 | 66 | 0 | 0.0 | 0.0 | 0.00 | 0.16 | 0.16 | 67 | 1004.9 |
| 20260506100513 | 64 | 0 | 0.0 | 0.0 | 0.01 | 0.16 | 0.16 | 72 | 1005.2 |
| 20260506095013 | 64 | 0 | 0.0 | 0.0 | 0.00 | 0.15 | 0.15 | 71 | 1005.3 |
| 20260506093513 | 65 | 0 | 0.0 | 0.0 | 0.00 | 0.15 | 0.15 | 71 | 1005.2 |
| 20260506090513 | 64 | 0 | 0.0 | 0.0 | 0.00 | 0.15 | 0.15 | 72 | 1005.0 |
| 20260506085013 | 64 | 0 | 0.0 | 0.0 | 0.00 | 0.15 | 0.15 | 74 | 1004.8 |
| 20260506082027 | 62 | 0 | 0.0 | 0.0 | 0.01 | 0.15 | 0.15 | 81 | 1004.8 |
| 20260506080512 | 61 | 0 | 0.0 | 0.0 | 0.01 | 0.15 | 0.15 | 84 | 1004.8 |
| 20260506072012 | 59 | 0 | 0.0 | 0.0 | 0.01 | 0.14 | 0.14 | 94 | 1004.8 |
| 20260506070512 | 58 | 0 | 0.0 | 0.0 | 0.01 | 0.14 | 0.14 | 96 | 1004.7 |
| 20260506062012 | 56 | 0 | 0.0 | 0.0 | 0.00 | 0.13 | 0.13 | 96 | 1004.8 |
| 20260506060511 | 55 | 0 | 0.0 | 0.0 | 0.01 | 0.13 | 0.13 | 96 | 1004.7 |